TimeCST,TemperatureF,Dew PointF,Humidity,Sea Level PressureIn,VisibilityMPH,Wind Direction,Wind SpeedMPH,Gust SpeedMPH,PrecipitationIn,Events,Conditions,WindDirDegrees,DateUTC
12:15 AM,42.8,30.2,61,29.82,10.0,Calm,Calm,-,N/A,,Clear,0,2012-12-06 06:15:00
12:35 AM,42.8,30.2,61,29.84,10.0,NW,10.4,-,N/A,,Clear,320,2012-12-06 06:35:00
12:55 AM,42.8,30.2,61,29.84,10.0,NW,8.1,-,N/A,,Clear,310,2012-12-06 06:55:00
1:15 AM,41.0,30.2,65,29.82,10.0,WNW,4.6,-,N/A,,Clear,300,2012-12-06 07:15:00
1:35 AM,41.0,30.2,65,29.82,10.0,WNW,5.8,-,N/A,,Clear,290,2012-12-06 07:35:00
1:55 AM,37.4,28.4,70,29.81,10.0,West,4.6,-,N/A,,Clear,260,2012-12-06 07:55:00
2:15 AM,37.4,30.2,75,29.81,10.0,West,5.8,-,N/A,,Clear,280,2012-12-06 08:15:00
2:35 AM,37.4,28.4,70,29.82,10.0,NW,8.1,-,N/A,,Clear,320,2012-12-06 08:35:00
2:55 AM,37.4,30.2,75,29.83,10.0,Calm,Calm,-,N/A,,Clear,0,2012-12-06 08:55:00
3:15 AM,37.4,30.2,75,29.82,10.0,NNW,10.4,-,N/A,,Clear,330,2012-12-06 09:15:00
3:35 AM,42.8,30.2,61,29.83,10.0,NW,12.7,-,N/A,,Clear,320,2012-12-06 09:35:00
3:55 AM,41.0,30.2,65,29.84,10.0,NW,11.5,-,N/A,,Clear,320,2012-12-06 09:55:00
4:15 AM,42.8,32.0,66,29.84,10.0,NW,15.0,-,N/A,,Clear,320,2012-12-06 10:15:00
4:35 AM,42.8,32.0,66,29.84,10.0,NNW,13.8,-,N/A,,Clear,330,2012-12-06 10:35:00
4:55 AM,46.4,32.0,57,29.84,10.0,NNW,15.0,-,N/A,,Clear,330,2012-12-06 10:55:00
5:15 AM,46.4,32.0,57,29.84,10.0,NNW,13.8,-,N/A,,Clear,330,2012-12-06 11:15:00
5:35 AM,46.4,33.8,62,29.85,10.0,NNW,12.7,-,N/A,,Clear,330,2012-12-06 11:35:00
5:55 AM,46.4,33.8,62,29.85,10.0,NNW,10.4,-,N/A,,Clear,330,2012-12-06 11:55:00
6:15 AM,46.4,33.8,62,29.86,10.0,NNW,11.5,-,N/A,,Clear,330,2012-12-06 12:15:00
6:35 AM,48.2,33.8,58,29.86,10.0,NNW,12.7,-,N/A,,Clear,330,2012-12-06 12:35:00
6:55 AM,48.2,35.6,62,29.87,10.0,NNW,15.0,-,N/A,,Clear,340,2012-12-06 12:55:00
7:35 AM,46.4,35.6,66,29.89,10.0,North,19.6,-,N/A,,Clear,10,2012-12-06 13:35:00
7:55 AM,46.4,33.8,62,29.91,10.0,North,18.4,-,N/A,,Clear,10,2012-12-06 13:55:00
8:15 AM,46.4,33.8,62,29.92,10.0,North,16.1,-,N/A,,Mostly Cloudy,360,2012-12-06 14:15:00
8:35 AM,46.4,35.6,66,29.93,10.0,North,19.6,-,N/A,,Overcast,360,2012-12-06 14:35:00
8:55 AM,46.4,35.6,66,29.95,10.0,North,23.0,29.9,N/A,,Overcast,10,2012-12-06 14:55:00
9:15 AM,46.4,32.0,57,29.97,10.0,NNE,26.5,31.1,N/A,,Overcast,20,2012-12-06 15:15:00
9:35 AM,44.6,30.2,57,29.98,10.0,NNE,23.0,29.9,N/A,,Overcast,20,2012-12-06 15:35:00
9:55 AM,44.6,24.8,46,29.98,10.0,NNE,25.3,33.4,N/A,,Overcast,20,2012-12-06 15:55:00
10:15 AM,44.6,23.0,43,30.01,10.0,NNE,21.9,33.4,N/A,,Overcast,20,2012-12-06 16:15:00
10:35 AM,44.6,24.8,46,30.01,10.0,North,16.1,21.9,N/A,,Overcast,10,2012-12-06 16:35:00
10:55 AM,44.6,24.8,46,30.01,10.0,NNE,19.6,-,N/A,,Overcast,20,2012-12-06 16:55:00
11:15 AM,44.6,24.8,46,30.01,10.0,NNE,21.9,29.9,N/A,,Overcast,20,2012-12-06 17:15:00
11:35 AM,44.6,24.8,46,30.01,10.0,North,19.6,25.3,N/A,,Overcast,10,2012-12-06 17:35:00
11:55 AM,44.6,24.8,46,30.00,10.0,North,18.4,25.3,N/A,,Scattered Clouds,10,2012-12-06 17:55:00
12:15 PM,46.4,23.0,40,29.98,10.0,North,19.6,25.3,N/A,,Clear,10,2012-12-06 18:15:00
12:35 PM,46.4,21.2,37,29.98,10.0,North,20.7,-,N/A,,Scattered Clouds,10,2012-12-06 18:35:00
12:55 PM,44.6,21.2,39,29.97,10.0,North,21.9,27.6,N/A,,Mostly Cloudy,10,2012-12-06 18:55:00
1:15 PM,44.6,21.2,39,29.97,10.0,North,17.3,25.3,N/A,,Scattered Clouds,360,2012-12-06 19:15:00
1:35 PM,44.6,21.2,39,29.97,10.0,North,13.8,19.6,N/A,,Mostly Cloudy,350,2012-12-06 19:35:00
1:55 PM,44.6,21.2,39,29.97,10.0,North,16.1,21.9,N/A,,Overcast,360,2012-12-06 19:55:00
2:15 PM,44.6,21.2,39,29.96,10.0,North,18.4,21.9,N/A,,Mostly Cloudy,360,2012-12-06 20:15:00
2:35 PM,44.6,19.4,37,29.96,10.0,North,17.3,20.7,N/A,,Scattered Clouds,360,2012-12-06 20:35:00
2:55 PM,44.6,21.2,39,29.95,10.0,North,15.0,21.9,N/A,,Clear,360,2012-12-06 20:55:00
3:15 PM,44.6,21.2,39,29.95,10.0,North,17.3,-,N/A,,Scattered Clouds,360,2012-12-06 21:15:00
3:35 PM,44.6,21.2,39,29.96,10.0,North,15.0,-,N/A,,Scattered Clouds,10,2012-12-06 21:35:00
3:55 PM,44.6,19.4,37,29.96,10.0,North,13.8,-,N/A,,Clear,360,2012-12-06 21:55:00
4:15 PM,46.4,19.4,34,29.96,10.0,North,13.8,-,N/A,,Clear,10,2012-12-06 22:15:00
4:35 PM,44.6,17.6,34,29.97,10.0,NNE,13.8,-,N/A,,Clear,20,2012-12-06 22:35:00
4:55 PM,42.8,17.6,36,29.97,10.0,NNE,9.2,-,N/A,,Clear,20,2012-12-06 22:55:00
5:15 PM,41.0,15.8,36,29.97,10.0,NNE,5.8,-,N/A,,Clear,20,2012-12-06 23:15:00
5:35 PM,37.4,15.8,41,29.97,10.0,NNE,6.9,-,N/A,,Clear,20,2012-12-06 23:35:00
6:15 PM,35.6,15.8,44,29.97,10.0,NNE,8.1,-,N/A,,Scattered Clouds,20,2012-12-07 00:15:00
6:35 PM,35.6,15.8,44,29.97,10.0,NNE,6.9,-,N/A,,Overcast,20,2012-12-07 00:35:00
6:55 PM,33.8,17.6,52,29.98,10.0,North,8.1,-,N/A,,Scattered Clouds,10,2012-12-07 00:55:00
7:15 PM,33.8,17.6,52,29.98,10.0,NNE,9.2,-,N/A,,Clear,20,2012-12-07 01:15:00
7:55 PM,33.8,19.4,56,29.98,10.0,NE,6.9,-,N/A,,Clear,40,2012-12-07 01:55:00
8:35 PM,32.0,17.6,55,29.99,10.0,NE,6.9,-,N/A,,Clear,50,2012-12-07 02:35:00
8:55 PM,32.0,19.4,60,29.99,10.0,NE,6.9,-,N/A,,Scattered Clouds,50,2012-12-07 02:55:00
9:15 PM,32.0,19.4,60,29.98,10.0,NE,8.1,-,N/A,,Scattered Clouds,50,2012-12-07 03:15:00
9:35 PM,32.0,19.4,60,29.98,10.0,NE,8.1,-,N/A,,Scattered Clouds,50,2012-12-07 03:35:00
9:55 PM,32.0,19.4,60,29.99,10.0,NE,5.8,-,N/A,,Mostly Cloudy,40,2012-12-07 03:55:00
10:15 PM,32.0,19.4,60,29.99,10.0,NNE,5.8,-,N/A,,Overcast,30,2012-12-07 04:15:00
10:35 PM,33.8,19.4,56,29.99,10.0,NE,6.9,-,N/A,,Overcast,40,2012-12-07 04:35:00
10:55 PM,33.8,19.4,56,29.99,10.0,NE,3.5,-,N/A,,Overcast,40,2012-12-07 04:55:00
11:15 PM,33.8,19.4,56,29.98,10.0,ENE,3.5,-,N/A,,Overcast,70,2012-12-07 05:15:00
11:35 PM,32.0,19.4,60,29.98,10.0,Calm,Calm,-,N/A,,Overcast,0,2012-12-07 05:35:00
11:55 PM,32.0,19.4,60,29.98,10.0,Calm,Calm,-,N/A,,Scattered Clouds,0,2012-12-07 05:55:00